Tracking 29892 objects as of 21-Nov-2024
HD Live streaming from Space Station
objects crossing your sky now

COSMOS 2499 DEB

Track COSMOS 2499 DEB now!
10-day predictions


NORAD ID: 55724
Int'l Code: 2014-028AL
Perigee: 885.9 km
Apogee: 1,151.0 km
Inclination: 81.9 °
Period: 105.4 minutes
Semi major axis: 7389 km
RCS: Unknown
Launch date: May 23, 2014
Source: Commonwealth of Independent States (former USSR) (CIS)
Launch site: PLESETSK MISSILE AND SPACE COMPLEX (PKMTR)

Note: This is SATELLITE DEBRIS
Your satellite tracking list
Your tracking list is empty




NASA's NSSDC Master Catalog

Two Line Element Set (TLE):
1 55724U 14028AL  24324.38879317  .00064962  00000-0  69359-1 0  9999
2 55724  81.8694 198.4366 0179333  62.6020 299.3246 13.66737339 89684
Source of the keplerian elements: AFSPC